Location: Fairview
(40.8165°N, 122.7667°W)
Time: 23:46:14
(UTC+00:00)

USA 81 - Pass Details

Date: 09 September 2024
Orbit: 784 x 786 km, 85.0° (Epoch: 06 October)

Event Time Altitude Azimuth Distance (km) Brightness Sun altitude
Rises 03:02:31 0° 346° (NNW) 3,285 7.7 -6.8°
Reaches altitude 10° 03:05:03 10° 337° (NNW) 2,351 7.1 -7.2°
Maximum altitude 03:09:47 35° 274° (W) 1,256 6.0 -8.1°
Drops below altitude 10° 03:14:29 10° 210° (SSW) 2,335 6.7 -9.0°
Sets 03:17:00 0° 201° (SSW) 3,259 7.3 -9.4°
